Belen, NM

3:47 PM MST on February 24, 2017 (GMT -0700)
Belen

Weather History for KE80 - June, 2013

Change the Weather History Date:

Friday, June 14, 2013

  Actual Average (KABQ) Record (KABQ)
Temperature  
Mean Temperature 81 °F -  
Max Temperature 92 °F 89 °F 101 °F (1939)
Min Temperature 70 °F 58 °F 42 °F (1907)
Cooling Degree Days 16    
Growing Degree Days 31 (Base 50)    
Moisture  
Dew Point 45 °F    
Average Humidity 31    
Maximum Humidity 53    
Minimum Humidity 13    
Precipitation  
Precipitation 0.00 in - - ()
Sea Level Pressure  
Sea Level Pressure 30.05 in    
Wind  
Wind Speed 11 mph (SSE)    
Max Wind Speed 28 mph    
Max Gust Speed 33 mph    
Visibility 10 miles    
Events Rain , Thunderstorm    
Averages and records for this station are not official NWS values.
T = Trace of Precipitation, MM = Missing Value Source: NWS Daily Summary

Daily Weather History Graph

Daily Weather History Graph

Search for Another Location

Airport or City:

Trip Planner

Search our weather history database for the weather conditions in past years. The results will help you decide how hot, cold, wet, or windy it might be!

Date:

Astronomy

Jun. 14, 2013 Rise Set
Actual Time 5:53 AM MDT 8:21 PM MDT
Civil Twilight 5:24 AM MDT 8:51 PM MDT
Nautical Twilight 4:47 AM MDT 9:27 PM MDT
Astronomical Twilight 4:07 AM MDT 10:07 PM MDT
Moon 11:19 AM MDT (6/14) No Moon Set
Length of Visible Light 15h 26m
Length of Day
14h 27m
Waxing Crescent, 31% of the Moon is Illuminated
Jun 14
Waxing Crescent
Jun 16
First Quarter
Jun 23
Full
Jun 29
Last Quarter
Jul 8
New

Hourly Weather History & Observations

Time (MDT) Temp. Dew Point Humidity Pressure Visibility Wind Dir Wind Speed Gust Speed Precip Events Conditions
12:15 AM 79.0 °F 36.5 °F 22% 30.09 in 10.0 mi NNW 11.5 mph 17.3 mph N/A   Clear
12:35 AM 78.8 °F 37.0 °F 22% 30.09 in 10.0 mi North 8.1 mph - N/A   Clear
12:55 AM 77.5 °F 36.7 °F 23% 30.09 in 10.0 mi NNE 8.1 mph - N/A   Clear
1:15 AM 77.5 °F 38.1 °F 24% 30.09 in 10.0 mi East 8.1 mph - N/A   Clear
1:35 AM 75.7 °F 39.2 °F 27% 30.09 in 10.0 mi East 6.9 mph - N/A   Clear
1:55 AM 77.9 °F 42.6 °F 28% 30.08 in 10.0 mi SE 8.1 mph - N/A   Clear
2:15 AM 76.1 °F 45.3 °F 33% 30.07 in 10.0 mi SE 11.5 mph - N/A   Clear
2:35 AM 76.1 °F 45.9 °F 34% 30.07 in 10.0 mi SSE 11.5 mph - N/A   Clear
2:55 AM 75.7 °F 46.6 °F 35% 30.07 in 10.0 mi SSE 10.4 mph - N/A   Clear
3:15 AM 76.3 °F 47.1 °F 36% 30.07 in 10.0 mi SE 13.8 mph - N/A   Clear
3:35 AM 75.0 °F 47.5 °F 38% 30.07 in 10.0 mi SE 13.8 mph - N/A   Clear
3:55 AM 74.3 °F 48.2 °F 40% 30.07 in 10.0 mi SSE 12.7 mph - N/A   Clear
4:15 AM 73.8 °F 48.6 °F 41% 30.07 in 10.0 mi SSE 12.7 mph - N/A   Clear
4:35 AM 73.2 °F 49.6 °F 43% 30.08 in 10.0 mi SSE 11.5 mph - N/A   Clear
4:55 AM 72.7 °F 51.8 °F 48% 30.07 in 10.0 mi South 11.5 mph - N/A   Clear
5:15 AM 71.6 °F 52.3 °F 51% 30.07 in 10.0 mi SSE 11.5 mph - N/A   Clear
5:35 AM 71.1 °F 52.3 °F 52% 30.08 in 10.0 mi South 8.1 mph - N/A   Clear
5:55 AM 70.2 °F 52.2 °F 53% 30.08 in 10.0 mi SSE 8.1 mph - N/A   Clear
6:15 AM 70.7 °F 52.0 °F 51% 30.08 in 10.0 mi SSE 8.1 mph - N/A   Clear
6:35 AM 70.7 °F 51.8 °F 51% 30.08 in 10.0 mi SSE 10.4 mph - N/A   Clear
6:55 AM 72.7 °F 51.8 °F 48% 30.09 in 10.0 mi SSE 10.4 mph - N/A   Clear
7:15 AM 73.6 °F 51.1 °F 45% 30.09 in 10.0 mi SSE 12.7 mph - N/A   Clear
7:35 AM 74.3 °F 50.7 °F 43% 30.09 in 10.0 mi SSE 15.0 mph - N/A   Clear
7:55 AM 75.2 °F 50.4 °F 42% 30.10 in 10.0 mi SSE 15.0 mph - N/A   Clear
8:15 AM 76.1 °F 50.4 °F 40% 30.11 in 10.0 mi SSE 15.0 mph - N/A   Clear
8:35 AM 77.4 °F 50.2 °F 38% 30.11 in 10.0 mi SSE 13.8 mph - N/A   Clear
8:55 AM 78.3 °F 49.8 °F 37% 30.11 in 10.0 mi South 15.0 mph - N/A   Clear
9:15 AM 79.5 °F 48.6 °F 34% 30.12 in 10.0 mi SSE 12.7 mph - N/A   Clear
9:35 AM 80.4 °F 48.2 °F 32% 30.11 in 10.0 mi South 12.7 mph 18.4 mph N/A   Clear
9:55 AM 81.5 °F 48.4 °F 31% 30.11 in 10.0 mi South 11.5 mph 17.3 mph N/A   Clear
10:15 AM 82.6 °F 48.4 °F 30% 30.10 in 10.0 mi SSE 12.7 mph 17.3 mph N/A   Clear
10:35 AM 82.9 °F 47.5 °F 29% 30.10 in 10.0 mi South 10.4 mph 17.3 mph N/A   Clear
10:55 AM 83.8 °F 47.8 °F 28% 30.09 in 10.0 mi South 9.2 mph - N/A   Clear
11:15 AM 85.5 °F 47.5 °F 27% 30.09 in 10.0 mi SSE 8.1 mph 16.1 mph N/A   Clear
11:35 AM 86.0 °F 47.1 °F 26% 30.08 in 10.0 mi SSE 8.1 mph 16.1 mph N/A   Clear
11:55 AM 86.9 °F 46.6 °F 25% 30.08 in 10.0 mi South 12.7 mph 17.3 mph N/A   Clear
12:15 PM 87.4 °F 45.7 °F 23% 30.07 in 10.0 mi SSE 9.2 mph - N/A   Clear
12:35 PM 88.2 °F 43.2 °F 21% 30.06 in 10.0 mi South 10.4 mph - N/A   Clear
12:55 PM 88.3 °F 42.8 °F 20% 30.05 in 10.0 mi SW 4.6 mph 9.2 mph N/A   Clear
1:15 PM 89.6 °F 40.8 °F 18% 30.04 in 10.0 mi SW 4.6 mph - N/A   Clear
1:35 PM 90.7 °F 40.1 °F 17% 30.03 in 10.0 mi Calm Calm - N/A   Clear
1:55 PM 91.4 °F 37.0 °F 15% 30.02 in 10.0 mi SW 4.6 mph - N/A   Clear
2:15 PM 91.8 °F 36.7 °F 14% 30.00 in 10.0 mi WSW 8.1 mph - N/A   Clear
2:35 PM 90.7 °F 35.6 °F 14% 30.00 in 10.0 mi SE 4.6 mph - N/A   Clear
2:55 PM 90.9 °F 33.3 °F 13% 30.00 in 10.0 mi NW 6.9 mph - N/A   Clear
3:15 PM 90.3 °F 34.0 °F 14% 29.98 in 10.0 mi South 4.6 mph - N/A   Clear
3:35 PM 89.8 °F 34.9 °F 14% 29.97 in 10.0 mi West 3.5 mph - N/A   Clear
3:55 PM 90.5 °F 35.8 °F 14% 29.97 in 10.0 mi SSW 4.6 mph - N/A   Clear
4:15 PM 90.5 °F 35.6 °F 14% 29.96 in 10.0 mi South 4.6 mph - N/A   Clear
4:35 PM 90.9 °F 35.6 °F 14% 29.96 in 10.0 mi SSW 9.2 mph - N/A   Clear
4:55 PM 90.5 °F 35.1 °F 14% 29.96 in 10.0 mi South 6.9 mph - N/A   Clear
5:15 PM 92.1 °F 34.7 °F 13% 29.94 in 10.0 mi WSW 10.4 mph - N/A   Clear
5:35 PM 91.6 °F 34.2 °F 13% 29.94 in 10.0 mi West 5.8 mph - N/A   Clear
5:55 PM 91.0 °F 35.6 °F 14% 29.94 in 10.0 mi ENE 19.6 mph 26.5 mph N/A   Clear
6:15 PM 86.4 °F 47.8 °F 26% 29.95 in 7.0 mi ESE 26.5 mph 32.2 mph N/A   Scattered Clouds
6:35 PM 82.9 °F 48.2 °F 30% 29.96 in 7.0 mi SE 27.6 mph 33.4 mph N/A   Scattered Clouds
6:55 PM 80.6 °F 46.0 °F 30% 29.98 in 7.0 mi ESE 19.6 mph 29.9 mph N/A Thunderstorm Scattered Clouds
7:15 PM 75.7 °F 54.1 °F 47% 29.98 in 10.0 mi SE 19.6 mph 29.9 mph N/A Rain Light Rain
7:35 PM 76.8 °F 50.0 °F 39% 30.01 in 10.0 mi SE 13.8 mph - N/A Thunderstorm Mostly Cloudy
7:55 PM 77.0 °F 49.5 °F 38% 30.02 in 10.0 mi SE 19.6 mph - N/A   Mostly Cloudy
8:15 PM 74.8 °F 51.4 °F 44% 30.02 in 10.0 mi SE 23.0 mph 29.9 mph N/A Rain Light Rain
8:35 PM 75.4 °F 47.3 °F 37% 30.02 in 10.0 mi SE 18.4 mph 25.3 mph N/A   Scattered Clouds
8:55 PM 76.1 °F 45.7 °F 34% 30.02 in 10.0 mi SE 17.3 mph - N/A   Clear
9:15 PM 76.3 °F 46.4 °F 35% 30.02 in 10.0 mi SE 17.3 mph 23.0 mph N/A   Clear
9:35 PM 76.1 °F 46.2 °F 35% 30.02 in 10.0 mi SSE 16.1 mph 24.2 mph N/A   Clear
9:55 PM 76.1 °F 44.1 °F 32% 30.04 in 10.0 mi SE 17.3 mph 24.2 mph N/A   Clear
10:15 PM 75.6 °F 43.2 °F 31% 30.04 in 10.0 mi SE 17.3 mph 21.9 mph N/A   Clear
10:35 PM 74.8 °F 42.8 °F 32% 30.06 in 10.0 mi South 10.4 mph - N/A   Clear
10:55 PM 74.3 °F 46.8 °F 37% 30.08 in 10.0 mi SW 9.2 mph - N/A   Clear
11:15 PM 74.3 °F 45.7 °F 36% 30.09 in 10.0 mi SSW 12.7 mph - N/A   Clear
11:35 PM 75.4 °F 43.7 °F 32% 30.09 in 10.0 mi South 12.7 mph - N/A   Scattered Clouds
11:55 PM 75.9 °F 43.3 °F 31% 30.08 in 10.0 mi South 18.4 mph - N/A   Mostly Cloudy